Vertical_Velocity
1 -0 -11 3 -3 -2 4 -4 -2 -0 -2 -3 -0 -2 -4 -3 -3 -5 -2 -3 -4 -4 -2 3 -0 0 -2 -2 0 -3 -2 -5 2 -5 -0 -0 2 -2 3 -1 3 1 0 1
-3 -10 4 2 1 0 -0 -0 -4 -4 -3 0 -4 -12 -4 -6 1 -2 -1 -2 -3 -1 -5 -3 -5 -1 1 4 1 2 8 2 -0 -3 3 2 -7 -3 -1 0 2 -0 4 -1
-2 5 -2 2 1 -1 -0 1 0 4 -3 -7 -6 -37 -17 -4 -7 -7 -3 -0 -1 -2 -0 3 0 -0 1 -1 2 -2 2 -3 3 3 2 -3 -4 1 -1 -3 -2 2 6 6
1 10 -0 1 -2 3 3 6 2 -0 0 1 -8 -20 -29 -10 0 1 -5 -10 -5 -2 -4 -4 -1 -0 2 0 4 3 9 -1 1 4 -1 -7 8 5 6 5 1 -2 5 4
4 -0 2 -2 -0 3 -1 -2 -0 0 -0 3 -7 13 -33 2 -4 -6 -4 -10 3 5 4 2 -3 0 3 5 5 3 4 3 2 4 -2 -0 1 -0 3 2 1 -1 3 5
8 -2 -2 3 1 1 2 -2 -8 -6 -2 6 -9 7 -42 0 3 7 -2 1 -15 -5 -1 1 2 1 -0 6 -0 1 -1 2 1 1 5 -0 -2 -3 3 4 1 4 6 5
-0 -3 -1 -0 1 -3 4 -3 1 5 7 -8 -4 14 -34 -12 5 -5 -10 -0 1 -7 -13 -4 -2 -1 0 1 7 -1 4 2 2 1 2 4 -6 2 5 1 0 2 3 -1
-2 10 0 -4 -5 1 -3 1 -1 0 2 -3 18 -8 -27 1 4 -3 -6 -2 -1 1 13 -5 -21 7 5 1 2 -1 7 -2 3 2 2 3 -3 6 4 0 3 1 -0 1
-0 -1 1 -1 1 -3 1 -2 -2 7 -11 14 -11 -20 -18 5 -5 -4 -4 5 -6 7 2 -2 3 -7 -1 5 6 2 2 0 7 4 4 -3 6 -0 6 6 4 1 -3 6
0 -1 -1 3 -1 -4 -3 3 -0 2 2 -1 -6 -4 -18 16 20 21 2 -3 -1 4 -1 11 -10 -1 4 1 7 7 6 3 10 7 -1 5 3 6 2 2 0 6 -2 1
-2 1 1 -1 -6 -0 3 0 -5 9 2 3 1 -14 8 -5 -25 -17 4 17 10 -1 4 -2 7 -2 2 4 3 7 6 1 6 2 3 2 5 1 2 1 1 -3 11 -4
-3 3 -3 -6 2 2 8 -7 -2 10 -8 -0 6 -63 -15 3 4 11 -21 14 -3 2 3 -1 6 0 1 6 9 4 3 6 7 3 5 3 2 1 1 2 -3 12 -6 12
-3 -1 -2 2 -5 4 -7 -1 1 12 21 -14 19 -42 -9 -1 3 1 -6 -35 21 4 -0 -7 2 2 2 2 9 7 3 2 5 5 4 0 1 2 2 -2 4 14 -2 1
2 2 -7 -2 9 18 3 3 8 17 9 -14 -19 -24 2 -2 16 -3 -8 -8 -3 9 -6 -7 1 0 5 3 4 9 1 4 7 5 2 2 3 1 3 -4 -4 1 2 1
-2 -4 1 -2 -4 2 -1 -5 1 14 -4 24 -34 1 1 16 6 -7 -4 0 -0 -6 -7 -4 1 0 5 3 1 2 3 7 5 4 3 2 1 -0 -4 5 4 4 4 -0
-3 -5 1 -8 2 -1 -4 4 4 3 -1 -1 3 -17 4 4 -5 -3 12 15 14 -3 -1 -2 1 2 1 -4 6 5 5 2 4 4 2 2 -4 -2 15 -2 -3 4 4 -6
6 -0 3 -6 -2 1 -2 -3 1 -0 3 6 -0 1 2 -3 4 1 3 2 -0 -1 -4 0 2 2 5 3 5 4 5 4 6 1 6 -1 3 11 1 2 2 -4 -2 2
4 1 4 -7 -9 2 3 0 -0 2 2 2 1 1 1 0 5 -2 4 -1 -2 -3 -2 -3 2 2 4 1 0 3 2 6 -1 1 -2 4 3 4 -1 -0 -1 0 -0 -0
0 8 -1 -0 -1 -19 6 -1 4 4 -1 4 1 -1 -1 -0 6 6 6 4 1 -1 -2 1 2 2 4 2 3 8 0 13 -3 2 11 -1 6 0 -3 -3 0 1 1 1
2 7 6 5 3 1 3 2 2 2 0 -6 9 0 2 -2 5 1 0 4 1 2 4 5 3 1 2 -1 -7 9 11 13 12 6 0 0 -2 -2 1 0 2 2 1 -2
3 4 -5 -0 -0 -11 0 3 -0 4 -3 1 -2 -2 1 -1 -1 2 7 10 5 12 11 14 17 14 13 10 14 11 7 3 -1 1 4 1 1 -0 1 1 1 -2 -3 -0
-3 -2 -4 2 2 -5 2 -1 4 1 8 3 -6 0 1 -2 -2 1 1 -1 0 -0 -2 -2 -1 -4 -6 -4 -0 2 2 1 0 -2 -2 -2 1 1 -1 -1 -0 -0 -1 -0
-0 -7 2 -7 -1 -1 2 -2 1 4 1 1 3 -3 -5 -7 -2 -0 -3 -2 -2 -1 -1 -3 -2 -1 -1 -0 0 1 -4 -4 -2 -0 1 -1 -2 -0 1 -0 -1 -1 -1 -2
-4 2 -4 -2 4 4 0 0 -0 1 3 -0 1 1 -1 1 3 -2 3 -1 0 -2 -2 -1 -1 1 -1 -2 -1 -2 2 0 -3 -4 -1 1 1 -1 -1 -1 -2 -2 -1 -0
9 -2 2 -2 -1 -0 1 3 1 0 -4 -1 1 3 2 2 0 1 -0 0 2 1 1 1 1 1 -1 -2 -1 -1 -2 -3 -2 -1 -0 -1 -1 -0 -1 -2 -1 -0 1 -2
-4 2 -0 4 -4 0 -0 -1 1 1 0 -3 1 2 2 3 -0 2 1 2 2 2 1 0 -1 -0 -1 -2 -3 -2 -1 -0 0 -0 -0 0 -1 -1 -1 -1 0 1 -3 -3
Height
3051 3055 3053 3058 3060 3062 3063 3062 3063 3064 3064 3060 3056 3050 3050 3050 3048 3047 3049 3050 3052 3054 3058 3059 3062 3066 3070 3074 3078 3082 3085 3089 3092 3094 3097 3099 3100 3100 3101 3103 3105 3106 3107 3107
3050 3048 3052 3055 3056 3058 3058 3060 3060 3059 3058 3055 3050 3035 3039 3039 3037 3039 3040 3040 3042 3045 3047 3050 3052 3055 3058 3063 3067 3071 3076 3079 3084 3086 3091 3092 3089 3093 3096 3097 3100 3100 3101 3103
3047 3048 3046 3050 3051 3053 3054 3055 3056 3056 3055 3051 3047 3027 3029 3027 3027 3029 3031 3032 3032 3033 3035 3038 3041 3044 3047 3051 3056 3060 3066 3070 3075 3079 3081 3082 3084 3087 3088 3091 3093 3095 3096 3098
3046 3046 3045 3046 3047 3051 3052 3053 3052 3052 3052 3050 3047 3031 3024 3025 3025 3025 3022 3023 3024 3024 3024 3026 3029 3032 3035 3039 3045 3048 3054 3058 3065 3070 3072 3075 3080 3080 3082 3085 3087 3089 3091 3093
3041 3039 3041 3042 3044 3048 3050 3047 3048 3049 3049 3047 3042 3047 3006 3019 3018 3016 3016 3016 3018 3018 3018 3018 3020 3021 3024 3029 3032 3036 3041 3048 3055 3060 3063 3068 3071 3072 3076 3078 3080 3083 3085 3087
3038 3036 3038 3040 3041 3043 3043 3045 3045 3046 3048 3040 3030 3035 2999 3011 3012 3012 3011 3010 3011 3012 3012 3010 3011 3012 3013 3017 3021 3024 3030 3038 3044 3050 3057 3061 3061 3066 3070 3073 3074 3077 3080 3081
3032 3032 3033 3035 3038 3040 3042 3044 3044 3043 3043 3028 3022 3022 3004 3005 3007 3007 3007 3007 3005 3003 3003 3003 3003 3003 3005 3007 3011 3012 3022 3028 3034 3043 3048 3053 3053 3060 3063 3066 3068 3070 3073 3075
3029 3031 3031 3030 3033 3038 3038 3042 3041 3031 3022 3016 3018 3008 2999 3001 3000 2997 2997 2997 2998 2995 2995 2994 2995 2996 2997 2998 3001 3005 3013 3020 3027 3034 3041 3043 3049 3054 3057 3059 3062 3063 3067 3069
3026 3028 3027 3028 3030 3034 3036 3037 3039 3038 3033 3027 3009 2998 2994 2993 2992 2993 2992 2991 2989 2990 2988 2987 2986 2987 2989 2991 2993 2997 3006 3014 3021 3027 3032 3037 3044 3047 3052 3054 3056 3057 3061 3064
3023 3026 3025 3027 3028 3030 3032 3035 3036 3037 3030 3012 2994 2989 2988 2987 2987 2987 2988 2987 2986 2984 2982 2981 2981 2980 2982 2985 2988 2992 2998 3007 3015 3020 3024 3032 3038 3042 3045 3047 3050 3053 3056 3058
3021 3024 3025 3024 3022 3024 3027 3027 3029 3030 3025 3012 2995 2977 2981 2981 2983 2985 2984 2984 2980 2979 2976 2974 2975 2976 2976 2978 2982 2987 2991 2999 3007 3013 3021 3027 3033 3036 3039 3042 3045 3048 3051 3055
3019 3021 3020 3019 3020 3021 3023 3023 3025 3023 3015 3010 3004 2960 2977 2978 2978 2976 2976 2977 2976 2975 2971 2968 2968 2971 2971 2973 2977 2981 2986 2994 3002 3009 3017 3022 3027 3031 3035 3037 3041 3044 3047 3048
3017 3017 3018 3016 3019 3019 3017 3017 3018 3013 3008 2998 3000 2962 2970 2972 2971 2969 2968 2969 2971 2968 2965 2962 2964 2966 2966 2968 2973 2977 2983 2991 2999 3007 3013 3018 3023 3027 3030 3033 3037 3039 3043 3044
3015 3015 3014 3011 3012 3015 3012 3010 3008 3006 2998 2984 2975 2961 2965 2966 2964 2959 2959 2959 2959 2961 2956 2959 2959 2960 2962 2965 2969 2974 2981 2990 2998 3003 3009 3014 3019 3022 3027 3031 3033 3035 3037 3039
3012 3010 3011 3009 3007 3006 3003 3000 2996 2993 2986 2981 2958 2963 2952 2953 2953 2951 2950 2948 2950 2954 2951 2953 2954 2955 2958 2962 2966 2973 2981 2989 2995 3000 3006 3011 3015 3019 3023 3026 3028 3030 3032 3035
3008 3008 3006 3000 2999 2999 2995 2992 2988 2982 2977 2970 2963 2954 2951 2948 2947 2946 2945 2944 2946 2946 2945 2946 2947 2950 2955 2961 2967 2973 2980 2987 2993 2998 3003 3008 3013 3017 3018 3022 3023 3026 3029 3029
3007 3006 3005 2997 2996 2993 2988 2985 2982 2976 2971 2966 2958 2954 2951 2948 2944 2940 2938 2938 2938 2939 2940 2941 2943 2946 2954 2960 2966 2972 2978 2986 2991 2996 3001 3006 3010 3011 3015 3018 3021 3022 3023 3024
3003 3004 3004 2998 2995 2989 2986 2983 2977 2972 2966 2961 2956 2952 2950 2945 2940 2936 2932 2931 2932 2934 2937 2938 2941 2946 2953 2959 2965 2972 2980 2986 2991 2995 2999 3003 3005 3008 3011 3015 3016 3018 3020 3019
3001 3003 3003 3001 2997 2987 2982 2979 2975 2970 2965 2960 2955 2952 2949 2945 2940 2934 2932 2930 2930 2932 2934 2938 2942 2949 2955 2961 2967 2974 2980 2985 2989 2993 2995 2997 3000 3006 3009 3013 3014 3014 3013 3012
2998 3000 3002 3001 2999 2988 2981 2979 2973 2968 2966 2961 2956 2954 2950 2946 2943 2937 2934 2933 2934 2935 2938 2941 2946 2953 2959 2964 2969 2976 2980 2983 2986 2987 2991 2997 3002 3005 3007 3008 3008 3008 3007 3006
2994 2996 2996 2997 2997 2986 2982 2979 2974 2971 2972 2964 2959 2957 2953 2950 2949 2945 2938 2939 2940 2943 2945 2947 2951 2958 2962 2966 2969 2975 2978 2982 2987 2991 2995 2999 3001 3002 3003 3004 3004 3003 3002 3000
2992 2993 2992 2993 2993 2988 2981 2979 2977 2974 2968 2963 2962 2960 2958 2956 2955 2954 2952 2950 2952 2955 2957 2959 2961 2964 2968 2972 2976 2980 2983 2987 2991 2993 2995 2997 3000 3000 3001 3001 3000 2999 2996 2993
2990 2989 2988 2988 2985 2983 2981 2978 2976 2970 2967 2964 2964 2963 2962 2961 2961 2961 2960 2959 2960 2962 2963 2965 2968 2971 2973 2977 2980 2983 2986 2989 2991 2994 2996 2997 2998 2998 2998 2997 2995 2993 2990 2987
2985 2985 2984 2985 2982 2981 2978 2977 2975 2972 2969 2967 2967 2966 2965 2965 2965 2965 2966 2967 2967 2967 2969 2971 2973 2976 2978 2981 2983 2986 2989 2991 2993 2994 2995 2996 2996 2995 2994 2992 2990 2987 2984 2980
2983 2981 2981 2981 2980 2979 2977 2975 2974 2973 2972 2970 2969 2968 2968 2967 2968 2968 2969 2970 2972 2973 2974 2975 2977 2979 2982 2984 2986 2987 2989 2991 2992 2993 2994 2994 2992 2991 2989 2987 2984 2981 2979 2975
2978 2978 2979 2980 2977 2977 2976 2975 2974 2973 2972 2971 2970 2969 2969 2968 2969 2971 2972 2973 2975 2976 2978 2979 2980 2982 2984 2986 2987 2989 2990 2991 2991 2991 2991 2989 2988 2986 2984 2982 2980 2977 2973 2968